When you browse on this site, cookies collect data to enhance your experience and personalize the content and advertising you see.
Visit our Privacy Policy to learn more. By continuing to use the site, you agree to this use of cookies and data.
  • în România
  • Lista ţărilor
  • Pe 7 zile
  • Temperatura apei
  • Hartă satelitară
  • Meteo pe hartă
  • Widget-uri
  • user-avatar
    Intrare

    Meteo pe oră la Bremen

    Astăzi, 24 Mai, Vineri

    Timp Temperatura Precipitaţii Vânt Presiune Umiditate
    00:00 +11°C° 0 mm 1 m/s 761 mmHg 87%
    01:00 +11°C° 0 mm 1 m/s 760 mmHg 90%
    02:00 +10°C° 0 mm 1 m/s 760 mmHg 90%
    03:00 +10°C° 0 mm 1 m/s 760 mmHg 91%
    04:00 +10°C° 0 mm 1 m/s 760 mmHg 91%
    05:00 +10°C° 0 mm 2 m/s 760 mmHg 88%
    06:00 +13°C° 0 mm 2 m/s 760 mmHg 84%
    07:00 +14°C° 0 mm 2 m/s 760 mmHg 80%
    08:00 +16°C° 0 mm 3 m/s 760 mmHg 75%
    09:00 +18°C° 0 mm 4 m/s 760 mmHg 70%
    10:00 +19°C° 0 mm 4 m/s 760 mmHg 64%
    11:00 +20°C° 0.1 mm 5 m/s 759 mmHg 63%
    12:00 +21°C° 0.1 mm 5 m/s 759 mmHg 61%
    13:00 +21°C° 0.1 mm 5 m/s 759 mmHg 59%
    14:00 +21°C° 0.4 mm 5 m/s 759 mmHg 64%
    15:00 +20°C° 0.4 mm 6 m/s 759 mmHg 68%
    16:00 +19°C° 0.4 mm 6 m/s 759 mmHg 72%
    17:00 +16°C° 0 mm 5 m/s 759 mmHg 75%
    18:00 +15°C° 0 mm 4 m/s 759 mmHg 78%
    19:00 +13°C° 0 mm 4 m/s 759 mmHg 80%
    20:00 +12°C° 0 mm 3 m/s 759 mmHg 85%
    21:00 +10°C° 0 mm 3 m/s 759 mmHg 91%
    22:00 +8°C° 0 mm 2 m/s 760 mmHg 96%
    23:00 +8°C° 0 mm 2 m/s 760 mmHg 96%

    Mâine, 25 Mai, Sâmbătă

    Timp Temperatura Precipitaţii Vânt Presiune Umiditate
    00:00 +8°C° 0 mm 2 m/s 760 mmHg 97%
    01:00 +7°C° 0 mm 3 m/s 760 mmHg 97%
    02:00 +8°C° 0 mm 3 m/s 760 mmHg 97%
    03:00 +8°C° 0 mm 3 m/s 760 mmHg 96%
    04:00 +8°C° 0 mm 2 m/s 760 mmHg 96%
    05:00 +9°C° 0 mm 3 m/s 760 mmHg 93%
    06:00 +10°C° 0 mm 3 m/s 760 mmHg 90%
    07:00 +10°C° 0 mm 3 m/s 761 mmHg 87%
    08:00 +11°C° 0 mm 3 m/s 761 mmHg 85%
    09:00 +12°C° 0 mm 3 m/s 761 mmHg 82%
    10:00 +12°C° 0 mm 3 m/s 761 mmHg 79%
    11:00 +13°C° 0 mm 3 m/s 761 mmHg 78%
    12:00 +13°C° 0 mm 3 m/s 761 mmHg 76%
    13:00 +14°C° 0 mm 3 m/s 761 mmHg 74%
    14:00 +14°C° 0 mm 3 m/s 761 mmHg 75%
    15:00 +14°C° 0 mm 3 m/s 761 mmHg 76%
    16:00 +14°C° 0 mm 3 m/s 760 mmHg 77%
    17:00 +13°C° 0 mm 3 m/s 760 mmHg 78%
    18:00 +14°C° 0 mm 2 m/s 760 mmHg 80%
    19:00 +14°C° 0 mm 2 m/s 760 mmHg 82%
    20:00 +12°C° 0 mm 2 m/s 760 mmHg 85%
    21:00 +10°C° 0 mm 2 m/s 760 mmHg 89%
    22:00 +8°C° 0 mm 2 m/s 761 mmHg 93%
    23:00 +8°C° 0 mm 2 m/s 760 mmHg 94%

    Poimâine, 26 Mai, Duminică

    Timp Temperatura Precipitaţii Vânt Presiune Umiditate
    00:00 +7°C° 0 mm 2 m/s 760 mmHg 94%
    01:00 +7°C° 0 mm 2 m/s 760 mmHg 95%
    02:00 +7°C° 0 mm 2 m/s 759 mmHg 94%
    03:00 +8°C° 0 mm 2 m/s 759 mmHg 93%
    04:00 +9°C° 0 mm 2 m/s 759 mmHg 92%
    05:00 +9°C° 0.1 mm 3 m/s 759 mmHg 92%
    06:00 +10°C° 0.1 mm 3 m/s 758 mmHg 91%
    07:00 +11°C° 0.1 mm 3 m/s 758 mmHg 91%
    08:00 +11°C° 0 mm 4 m/s 758 mmHg 89%
    09:00 +12°C° 0 mm 4 m/s 758 mmHg 87%
    10:00 +12°C° 0 mm 4 m/s 758 mmHg 85%
    11:00 +13°C° 0.1 mm 5 m/s 757 mmHg 85%
    12:00 +13°C° 0.1 mm 5 m/s 757 mmHg 85%
    13:00 +14°C° 0.1 mm 5 m/s 757 mmHg 85%
    14:00 +15°C° 0 mm 4 m/s 756 mmHg 85%
    15:00 +17°C° 0 mm 4 m/s 756 mmHg 85%
    16:00 +17°C° 0 mm 3 m/s 756 mmHg 85%
    17:00 +17°C° 0.3 mm 3 m/s 755 mmHg 87%
    18:00 +18°C° 0.3 mm 3 m/s 755 mmHg 88%
    19:00 +18°C° 0.3 mm 3 m/s 755 mmHg 89%
    20:00 +16°C° 0.1 mm 3 m/s 754 mmHg 91%
    21:00 +14°C° 0.1 mm 3 m/s 754 mmHg 93%
    22:00 +13°C° 0.1 mm 3 m/s 754 mmHg 94%
    23:00 +13°C° 0.6 mm 4 m/s 753 mmHg 95%

    27 Mai, Luni

    Timp Temperatura Precipitaţii Vânt Presiune Umiditate
    00:00 +14°C° 0.6 mm 5 m/s 753 mmHg 95%
    01:00 +14°C° 0.6 mm 5 m/s 753 mmHg 96%
    02:00 +13°C° 0.1 mm 5 m/s 753 mmHg 96%
    03:00 +13°C° 0.1 mm 5 m/s 753 mmHg 96%
    04:00 +12°C° 0.1 mm 5 m/s 752 mmHg 96%
    05:00 +12°C° 0 mm 5 m/s 753 mmHg 95%
    06:00 +12°C° 0 mm 5 m/s 753 mmHg 93%
    07:00 +12°C° 0 mm 5 m/s 753 mmHg 92%
    08:00 +13°C° 0.1 mm 6 m/s 754 mmHg 87%
    09:00 +14°C° 0.1 mm 6 m/s 754 mmHg 82%
    10:00 +15°C° 0.1 mm 7 m/s 754 mmHg 77%
    11:00 +15°C° 0.1 mm 7 m/s 754 mmHg 74%
    12:00 +15°C° 0.1 mm 7 m/s 755 mmHg 72%
    13:00 +15°C° 0.1 mm 7 m/s 755 mmHg 69%
    14:00 +15°C° 0.1 mm 6 m/s 755 mmHg 68%
    15:00 +15°C° 0.1 mm 6 m/s 755 mmHg 68%
    16:00 +15°C° 0.1 mm 6 m/s 755 mmHg 67%
    17:00 +15°C° 0.2 mm 5 m/s 755 mmHg 72%
    18:00 +14°C° 0.2 mm 3 m/s 755 mmHg 78%
    19:00 +14°C° 0.2 mm 2 m/s 755 mmHg 83%
    20:00 +12°C° 0 mm 2 m/s 755 mmHg 85%
    21:00 +11°C° 0 mm 1 m/s 756 mmHg 88%
    22:00 +8°C° 0 mm 0 m/s 756 mmHg 90%
    23:00 +9°C° 0 mm 1 m/s 755 mmHg 90%

    28 Mai, Marţi

    Timp Temperatura Precipitaţii Vânt Presiune Umiditate
    00:00 +9°C° 0 mm 1 m/s 755 mmHg 91%
    01:00 +8°C° 0 mm 2 m/s 755 mmHg 92%
    02:00 +8°C° 0 mm 2 m/s 755 mmHg 92%
    03:00 +8°C° 0 mm 2 m/s 754 mmHg 93%
    04:00 +8°C° 0 mm 2 m/s 754 mmHg 93%
    05:00 +9°C° 0 mm 2 m/s 754 mmHg 90%
    06:00 +10°C° 0 mm 2 m/s 754 mmHg 88%
    07:00 +12°C° 0 mm 2 m/s 754 mmHg 85%
    08:00 +13°C° 0.1 mm 2 m/s 754 mmHg 81%
    09:00 +15°C° 0.1 mm 2 m/s 754 mmHg 76%
    10:00 +16°C° 0.1 mm 2 m/s 754 mmHg 71%
    11:00 +16°C° 0.8 mm 2 m/s 754 mmHg 76%
    12:00 +14°C° 0.8 mm 3 m/s 755 mmHg 81%
    13:00 +14°C° 0.8 mm 3 m/s 755 mmHg 85%
    14:00 +13°C° 0.7 mm 4 m/s 755 mmHg 87%
    15:00 +13°C° 0.7 mm 4 m/s 755 mmHg 88%
    16:00 +12°C° 0.7 mm 4 m/s 755 mmHg 89%
    17:00 +10°C° 0.1 mm 5 m/s 756 mmHg 88%
    18:00 +10°C° 0.1 mm 5 m/s 756 mmHg 87%
    19:00 +9°C° 0.1 mm 5 m/s 757 mmHg 85%
    20:00 +8°C° 0 mm 5 m/s 757 mmHg 86%
    21:00 +7°C° 0 mm 4 m/s 758 mmHg 88%
    22:00 +5°C° 0 mm 4 m/s 758 mmHg 89%
    23:00 +5°C° 0 mm 3 m/s 759 mmHg 90%

    29 Mai, Miercuri

    Timp Temperatura Precipitaţii Vânt Presiune Umiditate
    00:00 +5°C° 0 mm 3 m/s 759 mmHg 90%
    01:00 +4°C° 0 mm 3 m/s 760 mmHg 91%
    02:00 +4°C° 0 mm 3 m/s 760 mmHg 90%
    03:00 +5°C° 0 mm 2 m/s 760 mmHg 88%
    04:00 +5°C° 0 mm 2 m/s 761 mmHg 87%
    05:00 +6°C° 0 mm 2 m/s 761 mmHg 83%
    06:00 +7°C° 0 mm 3 m/s 761 mmHg 79%
    07:00 +9°C° 0 mm 3 m/s 762 mmHg 75%
    08:00 +9°C° 0 mm 3 m/s 762 mmHg 72%
    09:00 +10°C° 0 mm 4 m/s 762 mmHg 68%
    10:00 +11°C° 0 mm 4 m/s 763 mmHg 64%
    11:00 +11°C° 0 mm 4 m/s 763 mmHg 63%
    12:00 +12°C° 0 mm 4 m/s 763 mmHg 63%
    13:00 +12°C° 0 mm 4 m/s 763 mmHg 62%
    14:00 +13°C° 0 mm 4 m/s 763 mmHg 62%
    15:00 +13°C° 0 mm 4 m/s 763 mmHg 61%
    16:00 +14°C° 0 mm 4 m/s 763 mmHg 61%
    17:00 +13°C° 0.1 mm 3 m/s 763 mmHg 67%
    18:00 +12°C° 0.1 mm 3 m/s 763 mmHg 73%
    19:00 +12°C° 0.1 mm 3 m/s 763 mmHg 79%
    20:00 +10°C° 0 mm 3 m/s 764 mmHg 83%
    21:00 +9°C° 0 mm 2 m/s 764 mmHg 88%
    22:00 +7°C° 0 mm 2 m/s 764 mmHg 93%
    23:00 +6°C° 0 mm 2 m/s 764 mmHg 93%
    Arată mai mult